Wind_Speed
44 43 42 41 41 40 39 38 39 41 46 49 51 52 53 55 56 54 53 53 53 52 51 51 51 50 50 51 51 50 51 51 52 53 51 50 51 52 51 51 51 51 52 53 53 52 52 53 54 54 54 56 56 57 57 58 58 58 58 59 59 60
42 43 44 44 44 44 43 42 40 39 41 44 49 52 54 55 56 57 55 54 54 54 53 53 53 52 52 53 53 52 52 53 53 53 52 52 53 53 52 53 53 53 54 54 55 54 54 55 56 56 56 57 58 58 58 58 58 59 59 59 60 60
40 41 42 43 43 43 43 44 44 43 42 42 45 49 52 55 56 58 58 57 56 55 54 55 55 55 54 55 55 54 54 54 54 54 54 54 54 54 54 55 55 55 56 56 56 56 56 57 58 58 58 59 59 59 59 59 59 59 59 60 60 60
40 40 40 41 42 42 42 42 44 45 45 45 46 46 49 52 55 58 59 59 58 57 56 57 57 57 57 57 57 57 56 55 55 55 55 55 55 55 55 56 56 56 57 58 58 58 58 59 60 60 60 60 60 60 60 59 59 59 59 60 60 60
39 39 40 41 41 41 41 42 42 44 45 46 48 48 49 51 53 56 59 61 61 60 59 59 59 59 59 59 59 58 57 57 57 57 57 57 57 57 57 58 58 58 58 59 59 60 60 61 61 61 61 61 60 60 60 60 59 59 59 60 59 59
41 41 41 41 41 41 42 42 43 44 44 45 47 49 50 52 53 55 58 61 63 62 62 61 61 61 61 60 60 60 59 59 58 58 58 58 58 58 58 59 59 59 59 60 60 61 62 62 62 62 61 61 60 60 60 60 59 59 59 59 58 57
43 42 42 42 42 42 42 42 43 44 45 45 47 49 51 53 55 57 59 62 63 64 64 63 63 63 63 62 62 62 61 61 60 60 59 59 59 59 59 59 59 60 60 60 61 62 62 62 61 61 61 60 60 60 60 59 59 58 58 57 57 56
42 42 42 42 42 43 43 44 44 45 45 46 47 49 52 54 56 59 61 63 64 65 65 64 64 64 64 64 64 64 63 62 62 61 61 60 59 60 60 60 60 60 61 61 61 62 62 61 61 60 60 60 59 59 59 58 57 57 56 57 57 56
41 41 42 43 42 43 43 44 45 46 47 48 49 50 52 54 57 59 62 64 65 65 65 65 65 64 64 65 65 64 64 63 63 62 61 61 60 60 61 60 60 60 61 61 61 61 61 60 60 60 59 59 58 57 57 56 56 56 56 57 56 56
39 40 42 43 43 44 44 45 46 47 49 50 51 52 52 54 56 59 62 64 66 67 66 65 65 64 64 64 64 64 64 63 63 62 62 61 61 61 61 60 60 60 60 61 60 60 59 59 59 58 58 57 56 56 55 55 56 56 56 57 57 57
40 41 42 43 44 45 46 46 47 49 50 52 53 53 53 54 55 57 61 64 66 68 69 68 66 65 64 63 63 63 63 62 62 62 61 61 61 60 60 60 60 59 60 60 60 59 58 58 58 57 56 55 55 55 55 55 56 57 57 58 58 59
43 43 43 44 44 45 46 47 48 49 50 51 52 53 54 53 54 56 59 63 66 68 70 70 69 67 65 64 63 63 63 63 62 62 61 61 60 60 60 59 59 59 59 59 59 58 58 57 56 56 55 55 54 55 56 56 58 59 59 60 59 59
43 43 42 42 42 43 44 45 46 47 47 47 48 50 52 53 53 54 57 61 65 67 69 70 70 69 67 65 64 64 63 63 62 61 61 60 60 59 59 59 59 58 59 58 58 57 57 56 56 55 55 55 56 57 58 59 60 60 60 59 59 59
42 41 41 41 41 42 43 43 44 45 46 45 45 46 48 51 52 53 55 58 62 66 67 68 68 68 67 66 65 65 65 64 63 62 61 60 59 59 59 58 58 58 58 58 57 56 56 56 56 56 56 57 58 59 60 61 61 60 59 58 58 59
43 42 42 42 42 43 43 43 44 45 45 45 44 44 46 49 51 52 53 56 59 63 66 67 66 66 66 65 65 65 64 64 63 62 61 60 59 59 58 58 58 57 57 56 56 56 56 57 57 58 59 60 61 61 61 61 59 58 58 58 59 59
45 45 44 45 44 44 43 43 43 44 44 44 45 45 46 47 49 51 53 54 56 59 63 65 66 66 65 64 64 63 63 62 62 61 61 60 59 59 58 57 57 56 56 56 57 58 58 59 60 61 61 62 62 61 60 58 58 58 58 59 58 57
45 44 44 44 43 42 42 41 41 41 41 42 43 45 46 48 49 51 52 53 54 56 59 61 63 64 64 64 63 62 60 59 58 58 58 58 58 57 57 56 56 56 56 58 59 60 61 62 62 62 62 61 60 59 58 58 58 58 58 57 56 55
42 41 40 40 40 39 38 37 37 37 38 39 40 42 45 48 49 51 52 53 54 55 57 59 60 61 62 62 62 61 60 59 57 56 56 56 56 56 56 57 57 58 60 61 61 62 62 62 61 61 60 59 59 59 59 58 58 57 56 55 55 55
42 40 39 39 39 38 38 38 38 38 38 38 39 40 42 46 49 51 52 53 54 55 56 58 59 59 59 58 58 58 58 58 58 58 59 59 59 59 59 60 60 61 61 62 61 61 60 60 59 59 59 59 59 58 58 57 56 55 55 55 55 56
44 43 41 41 41 41 41 41 42 42 40 39 38 39 41 45 49 52 53 54 56 56 57 57 58 58 57 56 56 55 54 55 55 56 57 57 57 58 58 59 59 59 60 59 59 58 58 58 58 59 59 59 58 57 55 54 54 54 54 55 56 57
46 46 45 45 45 45 45 45 45 44 42 40 39 40 42 45 47 50 52 54 56 57 58 58 57 56 56 55 54 53 53 53 53 53 53 54 54 55 56 56 56 57 57 57 57 58 58 59 59 59 57 56 54 53 53 52 53 54 55 56 57 58
48 49 49 49 49 48 47 45 44 44 43 41 41 41 42 44 46 47 50 52 54 56 58 59 58 57 55 55 54 53 53 53 53 53 54 54 55 55 55 55 56 56 57 57 58 58 58 57 55 54 53 51 51 51 51 52 53 55 56 57 58 58
49 51 52 52 51 49 47 45 43 42 42 41 41 41 41 43 44 45 46 49 51 54 56 58 59 59 58 57 56 56 55 55 55 55 55 54 54 54 55 55 55 55 54 54 53 52 51 51 50 50 50 50 50 51 52 53 54 55 57 57 58 59
50 52 54 54 53 51 49 46 43 41 40 39 40 39 39 40 40 41 43 45 48 50 52 53 55 56 56 56 56 55 55 54 54 53 53 53 53 52 52 51 50 49 49 48 48 48 48 48 48 49 49 50 51 52 53 54 55 56 57 58 59 60
52 53 54 54 53 51 49 45 42 40 39 38 38 37 37 37 37 38 39 41 43 45 46 47 48 50 51 52 52 52 52 52 52 51 51 50 49 48 47 46 46 46 46 46 46 47 47 48 48 49 50 51 52 53 54 55 56 57 59 60 61 61
50 50 51 50 49 48 45 43 40 38 37 37 36 36 36 36 36 36 37 38 40 41 41 42 43 44 45 46 46 47 47 47 47 46 45 45 44 44 44 44 44 45 45 45 45 46 47 48 48 50 51 52 53 54 55 57 58 59 60 61 62 63
47 48 48 47 46 44 42 40 38 37 37 36 36 36 36 36 36 36 36 37 38 38 39 39 40 40 41 42 42 42 42 42 42 42 42 42 43 43 43 43 43 43 44 45 45 46 47 49 50 51 53 54 55 56 57 58 60 61 62 63 63 64
47 46 45 45 44 43 41 39 38 37 37 37 37 37 37 37 37 37 37 37 38 38 39 39 39 40 40 40 41 41 41 41 41 41 41 41 41 42 42 42 43 44 45 46 47 48 49 51 52 54 55 56 57 58 59 60 62 63 63 63 64 64
46 46 45 44 42 41 39 38 37 37 37 37 37 38 38 38 38 38 38 38 38 39 39 39 39 39 39 40 40 40 40 40 40 41 41 41 42 42 43 44 45 46 47 48 49 51 52 53 55 56 57 58 59 60 61 62 62 63 63 63 63 64
47 46 46 44 43 41 39 38 37 36 36 37 37 38 39 39 39 39 39 39 38 39 39 39 39 39 39 40 40 40 41 41 41 42 43 43 44 45 46 46 47 48 49 50 51 53 54 55 56 57 58 59 59 60 61 61 62 62 62 63 63 63
47 47 46 45 43 41 39 38 37 36 36 36 37 38 38 39 39 39 39 39 39 40 40 41 41 41 42 42 42 42 43 43 43 44 44 45 46 46 46 47 48 49 51 51 52 54 54 55 56 57 58 59 59 60 60 61 62 62 63 63 64 64
47 47 47 46 44 42 40 38 37 37 37 37 37 38 39 39 40 40 41 41 41 42 42 43 43 43 44 44 44 44 44 44 44 44 45 45 46 46 47 47 49 50 51 51 52 53 54 55 56 57 58 59 59 60 61 62 62 63 64 64 65 66
47 47 47 46 44 43 42 40 40 39 39 39 39 40 40 40 40 41 41 41 42 42 43 44 44 44 44 44 44 44 45 45 45 45 45 45 46 46 46 47 48 49 50 51 52 53 54 55 56 58 59 59 60 61 62 63 64 64 65 66 67 68
47 47 47 46 45 44 43 42 42 42 41 41 41 41 41 40 40 41 41 42 43 43 44 44 44 45 45 45 45 45 45 46 46 45 45 45 45 46 46 46 47 48 49 50 51 53 54 55 57 58 60 60 61 62 63 64 65 65 66 67 68 68
48 48 47 46 45 44 43 43 43 42 42 42 41 41 41 41 41 42 42 43 44 44 45 45 45 45 46 46 46 47 47 47 47 46 46 46 46 46 47 47 47 48 49 50 51 53 54 55 57 58 59 61 61 62 63 64 65 66 66 67 67 67
48 48 47 47 46 45 44 44 43 43 43 43 42 42 42 42 42 43 44 45 45 46 46 46 46 47 47 47 47 48 48 48 48 48 48 49 48 48 48 48 48 49 50 51 52 53 55 55 56 57 59 60 61 62 63 63 64 65 65 65 65 65
48 48 48 47 47 46 46 45 45 45 45 44 44 44 44 44 44 45 45 46 46 47 47 47 48 48 49 49 49 49 50 50 51 51 51 51 51 51 51 51 51 52 52 53 54 55 55 56 56 57 58 60 61 62 63 63 63 63 64 64 64 65
49 49 49 48 48 48 47 47 47 47 46 46 46 46 46 46 46 46 47 47 48 48 48 48 49 50 50 51 51 51 52 53 53 54 54 54 54 55 54 54 55 55 55 55 56 56 57 57 57 58 59 60 61 62 62 63 63 63 64 65 66 66
Wind_Direction
268 270 271 271 273 275 277 278 277 275 272 270 268 266 261 257 254 253 255 256 258 258 259 260 260 260 260 260 261 261 262 263 265 266 268 269 269 269 269 269 269 270 271 273 275 277 279 280 281 282 283 284 285 285 286 287 288 289 290 291 292 292
268 268 269 271 271 272 273 275 276 277 276 274 271 268 265 262 258 254 253 254 256 257 258 259 260 260 260 260 260 261 262 263 264 266 268 268 267 268 268 268 269 270 271 273 275 277 279 280 281 282 283 283 284 284 285 286 288 289 289 290 291 292
272 269 268 269 271 272 272 272 273 274 275 275 273 271 268 266 262 258 255 254 255 256 257 258 260 260 261 261 261 261 262 263 265 266 267 267 267 267 267 267 268 269 271 273 275 277 278 279 280 281 282 282 283 284 285 286 287 288 289 290 291 292
272 270 268 267 268 269 270 271 271 271 272 272 272 272 270 268 265 262 259 256 255 255 256 257 258 260 260 261 261 262 262 263 264 265 266 266 266 267 267 267 268 269 271 273 274 276 277 278 279 280 281 281 282 283 284 286 287 288 289 290 291 292
270 268 267 266 266 266 267 268 269 270 270 271 271 271 270 269 267 265 262 259 257 255 255 256 257 259 260 261 262 262 263 263 264 264 265 265 266 266 267 268 269 270 271 272 274 275 276 277 278 279 280 281 282 283 284 285 286 287 288 289 290 291
270 269 267 266 265 265 265 265 267 268 269 270 270 270 270 269 267 265 263 261 258 256 256 256 257 258 259 261 262 263 263 263 264 264 264 265 265 266 267 268 269 270 271 272 273 274 275 276 277 278 279 280 281 282 283 285 286 286 287 288 289 290
269 269 268 267 266 266 265 265 265 266 267 268 269 269 269 269 267 264 262 260 259 258 256 256 256 258 259 260 261 262 262 263 264 264 264 265 265 266 267 268 269 270 271 272 273 274 275 276 277 278 279 280 281 282 283 284 285 285 286 287 288 289
271 270 270 269 268 268 268 267 266 265 266 267 268 268 268 267 266 264 262 260 259 258 257 257 257 257 258 259 260 261 262 262 263 263 264 264 265 266 267 268 269 270 271 272 273 274 275 276 276 277 278 280 281 281 282 282 283 284 285 286 287 288
271 271 270 270 269 269 268 268 268 267 267 266 266 267 267 267 267 265 264 261 260 259 258 257 257 258 258 259 260 260 261 262 262 263 264 264 265 266 267 268 269 270 271 271 272 273 274 275 276 277 278 279 280 280 280 281 281 283 284 285 286 287
266 267 268 269 269 269 268 268 268 268 268 267 267 267 267 267 268 267 265 263 261 259 258 258 258 258 258 259 259 260 261 261 262 263 263 264 264 265 266 267 268 269 270 270 271 272 274 275 276 277 277 278 278 278 279 280 281 283 284 285 286 287
264 264 265 266 267 267 268 268 268 267 267 267 267 267 268 268 268 268 266 264 262 260 258 257 257 258 258 259 259 260 260 261 261 262 263 264 264 265 266 266 267 268 269 270 271 272 273 274 275 276 276 276 277 277 278 280 281 283 284 285 286 287
265 264 264 265 266 268 269 270 271 271 270 270 270 269 269 269 268 268 266 264 263 261 259 258 257 257 257 258 258 259 259 260 261 262 263 263 264 265 265 266 267 268 269 270 271 272 273 273 274 275 275 276 276 277 279 280 282 283 284 285 286 287
267 267 268 269 270 272 273 273 274 275 275 275 274 273 272 271 270 268 267 265 263 262 260 259 258 257 257 258 258 258 259 259 260 261 262 263 264 265 266 267 268 268 269 270 271 271 272 273 274 274 275 275 277 278 280 281 283 284 285 286 287 289
272 272 273 274 274 274 274 274 275 275 275 276 276 275 274 273 271 269 267 265 264 262 261 260 259 258 258 259 259 260 260 260 261 262 263 264 265 265 266 267 268 268 269 269 270 271 271 272 273 274 275 277 278 280 281 283 284 285 286 288 289 290
276 277 278 279 278 278 278 278 278 278 278 277 277 277 275 274 272 270 267 265 263 262 262 261 260 259 259 259 260 261 261 261 262 262 263 264 265 265 266 267 267 268 268 268 269 270 271 273 274 276 277 279 280 282 283 284 285 286 288 289 289 289
278 279 281 281 281 282 282 281 281 281 280 280 279 278 276 275 274 272 269 267 265 264 263 262 261 260 260 260 261 262 262 262 263 263 264 264 264 265 265 265 265 265 266 268 269 271 273 275 276 278 279 281 282 283 284 286 287 288 288 288 289 291
278 280 281 282 282 282 282 281 281 280 280 279 279 279 277 276 275 274 272 270 269 267 266 265 264 263 262 261 262 262 263 264 264 264 264 264 264 264 263 263 264 265 267 270 272 274 276 277 278 280 281 282 284 285 286 287 287 287 288 289 291 293
279 280 281 281 281 281 281 281 282 281 281 280 280 280 279 278 277 276 275 274 274 272 269 267 266 266 265 264 263 262 263 263 263 264 264 263 264 264 265 266 267 269 271 273 275 276 278 279 281 282 283 285 285 286 286 286 286 287 289 291 293 294
281 281 281 281 281 281 282 284 285 285 285 284 281 280 279 278 276 276 275 276 276 275 271 268 267 268 268 269 268 266 265 264 264 264 265 265 266 267 269 270 272 273 275 276 278 279 280 282 283 284 285 285 285 285 285 286 288 290 291 292 293 294
280 281 281 281 282 282 283 285 286 287 287 284 280 278 276 274 273 273 274 275 275 274 271 269 267 267 268 269 270 270 269 269 268 268 269 269 270 271 272 274 275 276 277 279 280 281 283 284 284 285 285 284 285 285 286 288 289 290 291 292 293 294
279 280 281 281 282 283 283 284 286 287 286 282 278 275 273 271 271 271 271 272 272 271 270 268 267 267 267 268 269 270 271 272 272 273 273 274 275 276 276 277 278 279 280 281 282 283 284 284 284 284 284 284 286 287 288 289 290 290 291 292 293 295
279 280 282 283 284 285 285 286 286 287 286 283 278 274 273 272 272 271 271 272 272 271 269 268 266 266 266 267 269 270 272 273 275 276 277 278 278 278 279 280 280 281 281 282 282 282 283 283 283 284 285 286 287 288 289 290 290 291 292 293 294 295
278 279 281 283 285 287 287 288 287 287 285 282 278 275 274 274 274 274 274 274 274 273 272 270 268 267 267 267 268 270 271 273 274 276 277 278 278 279 279 279 280 280 281 281 282 283 283 284 285 286 287 288 289 289 290 291 291 292 293 294 295 296
276 277 279 280 282 284 285 286 286 286 284 281 277 276 275 275 275 275 275 275 275 275 275 275 273 272 272 271 271 272 273 275 276 277 278 279 279 280 280 280 281 282 282 283 284 285 286 287 287 288 289 289 290 291 291 292 293 293 294 295 296 297
276 276 277 278 279 280 282 283 283 283 282 279 278 276 275 275 275 275 275 275 275 276 277 278 277 277 276 276 276 277 278 279 279 280 281 281 281 282 282 283 284 285 286 286 287 288 288 289 289 290 290 290 291 291 292 292 293 294 295 296 296 297
275 275 275 276 278 279 280 281 281 280 279 277 276 275 274 274 274 274 274 274 274 275 276 277 278 278 278 278 279 279 280 280 280 281 281 282 283 283 284 285 286 287 287 288 288 288 288 289 289 289 290 290 290 291 292 293 294 294 294 295 295 295
274 274 275 276 278 279 280 280 279 277 276 274 274 273 273 272 272 273 273 273 273 274 275 276 277 278 279 279 279 280 280 281 281 282 283 283 284 285 285 286 287 287 287 287 287 287 287 288 288 288 288 289 289 291 292 292 292 292 292 293 293 294
273 274 276 277 278 279 280 280 279 277 276 275 274 274 273 273 273 273 273 274 275 276 277 277 278 278 279 280 280 281 281 281 282 282 283 283 284 284 284 285 284 285 285 285 285 285 286 286 286 286 287 288 289 290 290 290 290 290 291 292 292 292
275 276 277 277 278 278 279 279 279 278 277 276 275 275 275 275 275 276 277 277 278 279 280 280 280 280 280 280 280 281 281 281 281 281 281 281 281 282 282 282 282 283 283 283 283 284 284 284 285 285 286 287 287 287 288 288 289 290 291 291 291 291
276 277 277 277 277 277 277 277 278 277 277 277 276 277 277 278 278 279 280 280 281 281 282 281 281 281 280 280 280 280 279 279 280 280 280 279 279 280 280 280 281 281 281 281 282 282 282 283 284 285 285 285 286 286 287 288 289 289 290 290 290 291
275 276 277 277 278 278 278 278 278 278 278 278 277 278 278 279 279 280 280 281 281 281 280 280 280 280 279 279 279 279 279 279 279 279 279 279 279 279 280 280 280 280 280 281 281 282 282 283 284 283 284 285 286 286 287 287 288 288 289 289 290 291
275 276 276 277 278 279 279 279 279 278 278 278 278 278 278 279 280 280 280 281 280 280 280 279 279 279 279 279 279 278 278 278 277 277 277 277 278 278 279 279 279 280 280 281 281 282 282 283 283 283 284 285 285 286 287 287 288 288 289 289 290 290
274 275 276 277 278 279 279 280 280 279 279 279 278 278 279 279 280 280 280 280 279 279 279 279 279 279 279 279 278 278 277 276 276 275 275 276 276 277 278 279 279 280 281 281 282 282 283 283 283 284 284 285 286 287 287 288 288 289 289 290 290 290
274 275 276 277 278 279 279 279 279 279 279 279 279 279 279 279 279 279 279 279 279 279 279 280 280 280 279 279 278 277 277 276 276 276 276 276 277 278 279 280 280 281 282 282 283 283 284 284 284 284 285 286 287 287 288 288 289 289 289 289 290 290
275 276 276 277 278 278 279 279 279 278 278 278 277 277 278 278 278 279 279 280 280 281 281 281 281 280 280 279 278 277 277 276 276 276 276 277 278 278 279 280 280 281 282 283 284 284 285 285 285 286 286 287 287 288 288 289 289 289 290 290 291 291
274 276 276 277 278 278 278 278 278 278 277 277 277 277 278 279 280 281 282 283 283 283 283 283 282 281 280 279 278 277 277 276 276 276 276 277 278 278 279 279 280 281 283 283 284 284 285 285 286 287 287 287 288 289 289 290 291 291 292 292 292 292
273 274 274 275 276 276 276 276 276 276 277 277 277 278 279 280 281 282 283 284 284 284 284 284 284 283 282 280 279 278 277 276 276 276 276 277 277 278 278 279 280 281 282 283 284 284 285 285 287 287 288 288 289 289 291 293 294 294 293 293 292 291
272 272 273 273 273 273 274 274 274 274 275 275 275 276 277 278 280 281 282 283 284 284 284 284 284 283 283 282 282 280 279 278 277 277 277 277 278 278 278 279 280 282 283 285 285 285 285 286 287 288 289 290 290 291 292 295 295 294 292 292 292 291
Height
5796 5796 5797 5798 5798 5798 5798 5798 5799 5799 5799 5800 5800 5801 5801 5801 5801 5802 5802 5802 5803 5804 5804 5804 5805 5805 5805 5806 5806 5807 5808 5808 5807 5807 5807 5808 5806 5805 5806 5805 5804 5803 5802 5801 5800 5799 5798 5797 5795 5794 5793 5791 5789 5787 5785 5784 5782 5781 5779 5776 5774 5772
5791 5791 5792 5792 5793 5793 5794 5794 5794 5794 5794 5794 5794 5795 5795 5796 5796 5797 5797 5797 5798 5799 5799 5799 5800 5800 5800 5800 5801 5802 5802 5802 5801 5801 5802 5801 5800 5799 5800 5799 5798 5797 5796 5795 5794 5794 5792 5791 5789 5788 5787 5784 5783 5781 5780 5778 5777 5775 5773 5770 5768 5766
5785 5786 5786 5787 5787 5787 5788 5788 5789 5789 5789 5789 5789 5789 5789 5790 5791 5791 5791 5792 5793 5794 5794 5794 5794 5794 5794 5794 5794 5795 5796 5796 5796 5796 5795 5794 5793 5794 5793 5792 5792 5791 5790 5789 5788 5788 5786 5785 5783 5782 5780 5778 5777 5775 5774 5772 5771 5769 5766 5764 5762 5760
5779 5780 5781 5781 5782 5782 5782 5783 5783 5783 5783 5783 5783 5783 5784 5784 5785 5785 5786 5786 5787 5788 5789 5788 5788 5788 5788 5788 5788 5789 5790 5790 5790 5789 5789 5788 5787 5787 5787 5786 5786 5785 5784 5783 5782 5781 5780 5778 5777 5775 5774 5772 5770 5769 5768 5766 5764 5762 5760 5758 5755 5753
5774 5774 5775 5775 5776 5776 5777 5777 5777 5777 5778 5778 5778 5778 5778 5778 5778 5778 5779 5780 5780 5781 5782 5782 5782 5782 5782 5782 5782 5782 5783 5783 5783 5782 5782 5781 5781 5781 5780 5779 5779 5779 5778 5777 5776 5775 5774 5772 5770 5769 5768 5766 5764 5763 5761 5760 5758 5756 5754 5751 5749 5748
5768 5768 5769 5769 5769 5770 5771 5771 5771 5771 5772 5772 5772 5773 5772 5772 5772 5772 5772 5773 5773 5774 5775 5775 5776 5776 5776 5776 5776 5776 5776 5776 5776 5775 5775 5775 5775 5774 5773 5773 5773 5772 5772 5771 5770 5769 5767 5766 5764 5762 5761 5760 5758 5757 5755 5753 5751 5749 5747 5745 5743 5742
5762 5762 5763 5763 5763 5764 5764 5765 5765 5765 5766 5766 5766 5766 5766 5766 5766 5765 5766 5766 5766 5767 5767 5768 5769 5769 5769 5769 5769 5769 5769 5769 5769 5768 5768 5768 5768 5767 5767 5766 5766 5766 5765 5764 5763 5761 5760 5759 5758 5756 5755 5754 5752 5751 5749 5747 5745 5743 5741 5739 5738 5736
5756 5756 5757 5757 5757 5758 5758 5758 5759 5759 5759 5759 5760 5760 5760 5760 5760 5759 5759 5759 5759 5760 5760 5761 5761 5762 5762 5762 5762 5762 5762 5762 5761 5761 5761 5761 5761 5760 5760 5760 5759 5759 5758 5757 5756 5754 5753 5752 5751 5750 5748 5747 5746 5744 5742 5740 5738 5736 5735 5733 5731 5730
5750 5750 5750 5751 5751 5751 5751 5752 5752 5752 5753 5753 5753 5753 5753 5753 5753 5753 5753 5753 5753 5753 5754 5754 5754 5755 5755 5755 5755 5755 5755 5755 5755 5755 5755 5754 5754 5754 5753 5753 5752 5752 5751 5749 5748 5747 5746 5745 5744 5743 5741 5740 5739 5737 5735 5733 5732 5730 5729 5727 5725 5723
5745 5746 5745 5745 5745 5745 5746 5746 5746 5746 5746 5746 5746 5746 5747 5747 5747 5747 5747 5747 5747 5747 5747 5747 5747 5747 5748 5748 5748 5748 5748 5748 5748 5748 5747 5747 5747 5747 5746 5746 5745 5745 5744 5742 5741 5741 5739 5738 5737 5736 5734 5733 5731 5730 5728 5727 5726 5724 5722 5721 5719 5717
5740 5741 5740 5740 5740 5740 5740 5740 5740 5740 5740 5740 5740 5740 5740 5741 5741 5741 5741 5741 5740 5740 5740 5740 5740 5741 5741 5741 5741 5741 5741 5741 5741 5741 5740 5740 5740 5740 5739 5739 5738 5738 5737 5735 5734 5734 5732 5730 5729 5728 5727 5725 5724 5723 5722 5721 5719 5718 5716 5714 5712 5710
5735 5735 5735 5735 5735 5735 5735 5735 5735 5735 5735 5735 5734 5734 5734 5734 5734 5734 5734 5733 5733 5733 5733 5733 5733 5733 5733 5734 5734 5734 5734 5734 5734 5733 5733 5733 5733 5733 5732 5731 5731 5731 5729 5728 5727 5726 5724 5723 5722 5721 5720 5719 5718 5717 5716 5714 5713 5711 5710 5708 5706 5704
5729 5729 5729 5730 5730 5730 5730 5730 5730 5730 5729 5729 5729 5728 5728 5728 5727 5727 5727 5727 5726 5726 5726 5726 5726 5726 5726 5727 5727 5726 5726 5726 5726 5726 5726 5726 5725 5725 5725 5724 5724 5723 5722 5721 5719 5718 5717 5716 5715 5714 5713 5712 5711 5710 5709 5708 5706 5705 5703 5702 5700 5698
5724 5724 5724 5724 5724 5725 5725 5725 5725 5724 5724 5723 5723 5722 5721 5721 5720 5720 5719 5719 5719 5719 5719 5719 5719 5719 5719 5719 5719 5719 5719 5719 5719 5719 5719 5718 5718 5717 5717 5717 5716 5715 5714 5713 5712 5711 5710 5709 5708 5707 5707 5706 5705 5704 5703 5701 5700 5698 5697 5695 5693 5691
5718 5718 5719 5719 5719 5720 5720 5720 5719 5719 5718 5718 5717 5716 5715 5714 5713 5713 5712 5712 5712 5712 5712 5711 5712 5712 5712 5712 5712 5711 5712 5712 5712 5711 5711 5711 5710 5710 5710 5709 5708 5707 5706 5705 5704 5703 5703 5702 5702 5702 5701 5700 5699 5697 5696 5695 5693 5692 5690 5689 5687 5684
5713 5713 5714 5714 5714 5715 5714 5714 5713 5713 5712 5711 5710 5709 5708 5707 5707 5706 5705 5705 5705 5705 5705 5704 5704 5704 5704 5704 5704 5704 5705 5704 5704 5704 5704 5704 5703 5703 5702 5701 5701 5700 5699 5699 5698 5697 5697 5696 5696 5695 5694 5693 5692 5690 5689 5688 5687 5686 5684 5682 5680 5678
5708 5709 5709 5709 5709 5709 5709 5708 5708 5707 5706 5705 5704 5703 5702 5701 5700 5700 5699 5699 5699 5699 5698 5697 5697 5697 5697 5697 5698 5698 5698 5698 5697 5697 5697 5696 5696 5695 5695 5694 5694 5694 5693 5693 5693 5692 5691 5690 5690 5689 5687 5686 5685 5684 5683 5681 5680 5679 5677 5675 5673 5671
5703 5704 5704 5704 5704 5704 5703 5703 5702 5701 5700 5699 5698 5696 5695 5695 5694 5693 5693 5693 5693 5693 5692 5691 5690 5689 5690 5690 5691 5691 5692 5692 5691 5691 5690 5690 5690 5689 5689 5689 5688 5688 5688 5687 5687 5686 5685 5684 5683 5682 5680 5679 5678 5677 5676 5675 5673 5672 5670 5668 5667 5665
5698 5699 5699 5699 5699 5699 5699 5698 5697 5696 5695 5693 5692 5691 5689 5688 5687 5686 5686 5687 5686 5686 5685 5685 5684 5683 5683 5683 5683 5683 5684 5684 5685 5684 5684 5684 5684 5684 5683 5683 5682 5682 5681 5681 5680 5679 5678 5677 5676 5675 5674 5673 5672 5670 5669 5668 5667 5665 5664 5662 5660 5658
5693 5693 5693 5694 5694 5693 5693 5693 5691 5690 5689 5687 5686 5685 5683 5682 5681 5680 5681 5680 5680 5679 5679 5678 5678 5677 5677 5676 5676 5676 5676 5677 5677 5677 5677 5677 5678 5677 5677 5676 5676 5675 5674 5674 5673 5672 5671 5670 5669 5668 5667 5666 5665 5664 5663 5662 5660 5659 5657 5655 5654 5652
5688 5688 5688 5688 5687 5687 5687 5686 5685 5684 5682 5681 5680 5678 5677 5676 5675 5675 5675 5674 5673 5673 5673 5672 5672 5671 5671 5671 5671 5671 5671 5671 5671 5671 5671 5671 5671 5671 5670 5669 5669 5668 5667 5667 5666 5665 5664 5663 5662 5661 5660 5659 5659 5657 5656 5655 5653 5652 5650 5648 5647 5645
5682 5682 5682 5681 5680 5680 5679 5679 5679 5677 5676 5675 5674 5672 5671 5670 5669 5669 5669 5668 5668 5667 5667 5667 5666 5666 5666 5666 5665 5666 5666 5665 5665 5665 5665 5665 5665 5664 5663 5663 5662 5661 5661 5660 5659 5658 5657 5656 5655 5655 5654 5653 5652 5651 5649 5648 5646 5645 5643 5641 5639 5638
5676 5676 5675 5674 5674 5673 5672 5672 5672 5671 5670 5669 5667 5666 5665 5664 5664 5664 5663 5663 5662 5661 5661 5661 5661 5661 5660 5660 5660 5661 5660 5660 5660 5659 5659 5659 5658 5658 5657 5656 5656 5655 5654 5654 5653 5652 5651 5650 5649 5648 5647 5646 5645 5644 5642 5641 5639 5637 5635 5634 5632 5630
5670 5670 5669 5669 5668 5667 5666 5666 5665 5664 5664 5663 5661 5661 5659 5659 5658 5658 5658 5657 5657 5656 5655 5655 5655 5655 5655 5654 5655 5654 5654 5654 5653 5653 5653 5652 5652 5651 5650 5650 5649 5648 5648 5647 5646 5645 5644 5643 5642 5641 5640 5639 5638 5636 5635 5633 5632 5630 5628 5627 5625 5623
5663 5663 5663 5662 5661 5661 5660 5659 5658 5658 5657 5656 5656 5655 5654 5653 5653 5652 5652 5651 5651 5650 5650 5649 5649 5649 5648 5648 5648 5648 5647 5647 5647 5646 5646 5645 5645 5644 5643 5643 5642 5642 5641 5640 5640 5639 5637 5636 5635 5634 5633 5632 5630 5629 5628 5626 5625 5623 5621 5620 5618 5616
5657 5657 5656 5656 5655 5654 5653 5653 5652 5651 5651 5650 5650 5649 5648 5648 5647 5647 5646 5646 5645 5645 5644 5644 5643 5643 5643 5642 5642 5642 5642 5641 5640 5640 5640 5639 5639 5638 5637 5637 5636 5635 5635 5634 5633 5632 5631 5629 5629 5627 5626 5625 5623 5622 5621 5620 5618 5616 5614 5613 5611 5609
5652 5651 5651 5650 5649 5648 5647 5647 5646 5645 5645 5644 5644 5643 5642 5642 5641 5641 5641 5640 5640 5640 5639 5639 5639 5638 5638 5637 5637 5636 5636 5636 5635 5635 5634 5633 5633 5632 5631 5631 5630 5629 5628 5628 5627 5626 5624 5623 5622 5621 5619 5618 5617 5616 5615 5613 5611 5609 5607 5606 5604 5602
5646 5646 5645 5644 5643 5643 5642 5641 5641 5640 5640 5639 5639 5638 5637 5637 5636 5636 5636 5635 5635 5635 5635 5634 5634 5634 5633 5633 5632 5632 5631 5630 5630 5629 5628 5628 5627 5626 5626 5625 5624 5623 5623 5622 5621 5620 5618 5617 5616 5614 5613 5612 5611 5610 5608 5606 5604 5602 5600 5599 5597 5594
5641 5640 5640 5639 5638 5637 5637 5636 5636 5635 5635 5635 5634 5634 5633 5633 5632 5632 5632 5631 5631 5630 5630 5630 5629 5629 5629 5628 5627 5627 5626 5625 5625 5624 5623 5623 5622 5621 5620 5620 5619 5618 5617 5616 5615 5613 5612 5611 5609 5608 5607 5606 5604 5603 5601 5599 5597 5595 5594 5591 5589 5586
5635 5635 5634 5633 5633 5632 5631 5631 5631 5631 5631 5631 5630 5630 5629 5629 5628 5628 5628 5627 5627 5626 5625 5625 5624 5624 5623 5623 5622 5622 5621 5620 5620 5619 5618 5617 5616 5616 5615 5614 5613 5612 5611 5610 5609 5607 5606 5605 5604 5602 5600 5599 5597 5595 5593 5592 5590 5588 5586 5583 5581 5578
5629 5629 5628 5627 5627 5627 5627 5627 5627 5627 5626 5626 5626 5626 5625 5625 5624 5624 5623 5623 5622 5621 5620 5620 5619 5618 5618 5617 5617 5616 5616 5615 5614 5614 5613 5612 5611 5610 5609 5608 5607 5606 5605 5604 5602 5601 5600 5599 5597 5595 5593 5591 5590 5588 5586 5584 5582 5580 5578 5575 5573 5571
5623 5623 5622 5622 5622 5622 5622 5622 5622 5622 5622 5621 5621 5621 5620 5620 5620 5619 5618 5618 5617 5616 5615 5614 5613 5613 5612 5612 5611 5610 5610 5609 5608 5608 5607 5606 5605 5604 5603 5602 5601 5600 5598 5597 5596 5595 5593 5592 5590 5587 5585 5584 5583 5581 5579 5577 5575 5572 5570 5568 5565 5563
5617 5617 5617 5617 5617 5616 5616 5616 5616 5616 5616 5616 5616 5615 5615 5615 5614 5614 5613 5612 5611 5611 5610 5609 5608 5608 5607 5606 5605 5605 5604 5603 5602 5601 5601 5599 5598 5598 5597 5596 5595 5593 5592 5591 5589 5588 5586 5585 5582 5580 5578 5577 5575 5573 5571 5569 5567 5565 5563 5560 5558 5556
5611 5611 5611 5612 5611 5611 5611 5611 5610 5610 5610 5610 5610 5610 5609 5609 5608 5608 5607 5607 5606 5605 5604 5603 5603 5602 5601 5600 5600 5599 5598 5597 5596 5595 5594 5593 5592 5591 5590 5589 5588 5586 5585 5583 5582 5580 5579 5577 5575 5573 5571 5569 5567 5565 5564 5561 5559 5557 5555 5553 5551 5548
5605 5605 5606 5606 5605 5605 5605 5605 5605 5605 5604 5604 5604 5603 5603 5602 5602 5601 5601 5600 5599 5599 5598 5597 5597 5596 5595 5594 5593 5592 5591 5590 5589 5588 5587 5586 5586 5584 5583 5582 5580 5579 5577 5576 5574 5573 5571 5569 5568 5565 5563 5561 5559 5557 5555 5553 5551 5549 5546 5544 5543 5540
5599 5599 5599 5599 5599 5599 5599 5599 5599 5598 5598 5598 5597 5597 5596 5596 5595 5595 5594 5593 5592 5592 5591 5590 5589 5588 5588 5587 5586 5585 5584 5583 5582 5582 5581 5579 5579 5577 5576 5575 5573 5571 5570 5568 5566 5564 5563 5561 5559 5558 5555 5552 5550 5548 5546 5544 5542 5540 5538 5536 5535 5532
5592 5592 5592 5593 5593 5592 5593 5593 5592 5592 5592 5592 5591 5591 5590 5590 5589 5588 5588 5587 5586 5585 5584 5582 5581 5581 5580 5579 5578 5578 5577 5576 5575 5574 5573 5572 5571 5570 5568 5567 5565 5563 5562 5560 5558 5556 5554 5552 5551 5549 5546 5543 5541 5538 5536 5535 5533 5531 5529 5527 5525 5523
5585 5585 5585 5586 5586 5586 5586 5586 5586 5586 5586 5585 5585 5585 5584 5583 5583 5582 5581 5580 5579 5578 5577 5576 5575 5574 5573 5572 5571 5570 5569 5568 5567 5566 5565 5564 5563 5562 5560 5559 5557 5555 5553 5551 5549 5547 5545 5543 5541 5539 5537 5535 5532 5529 5527 5526 5525 5523 5520 5518 5516 5514